Location: Boiro
(42.6475°N, 8.8834°W)
Time: 19:00:25
(UTC+01:00)

Altair - Pass Details

Date: 06 December 2021
Orbit: 1501 x 1683 km, 47.2° (Epoch: 25 January)

Event Time Altitude Azimuth Distance (km) Brightness Sun altitude
Rises 00:08:52 0° 294° (WNW) 4,649 10.4 -64.2°
Enters shadow 00:11:04 - 288° (WNW) 4,011 9.9 -64.5°
Reaches altitude 10° 00:12:22 10° 284° (WNW) 3,656 - -64.6°
Maximum altitude 00:19:50 29° 228° (SW) 2,467 - -65.5°
Drops below altitude 10° 00:27:21 10° 173° (S) 3,666 - -66.4°
Sets 00:30:54 0° 163° (SSE) 4,663 - -66.8°
